GW0175 Weather Reports


Display with metric or nautical units.
time (UTC)temp
F
wind
direction
speed
MPH
gust
MPH
rain 1hr
in
rain 24hr
in
rain mn
in
humidity
%
barometer
mb
20260906225015 98 201 2.0 12.0 0.00 0.00 0.00 27 1010.2
20260906224511 98 212 3.0 14.0 0.00 0.00 0.00 27 1010.2
20260906224008 98 124 2.0 11.0 0.00 0.00 0.00 27 1009.8
20260906223503 98 155 4.0 6.0 0.00 0.00 0.00 28 1010.1
20260906223001 98 180 2.0 9.0 0.00 0.00 0.00 28 1009.8
20260906222456 97 158 7.0 14.0 0.00 0.00 0.00 29 1010.3
20260906221953 98 187 3.0 7.0 0.00 0.00 0.00 28 1010.1
20260906221453 97 168 7.0 17.0 0.00 0.00 0.00 28 1010.0
20260906220948 98 148 2.0 9.0 0.00 0.00 0.00 27 1010.2
20260906220443 99 156 4.0 7.0 0.00 0.00 0.00 27 1010.2
20260906215942 98 173 7.0 7.0 0.00 0.00 0.00 27 1010.3
20260906215437 97 171 9.0 9.0 0.00 0.00 0.00 29 1010.7
20260906214935 99 162 3.0 9.0 0.00 0.00 0.00 28 1010.3
20260906214434 100 151 4.0 11.0 0.00 0.00 0.00 27 1010.7
20260906213933 98 184 6.0 15.0 0.00 0.00 0.00 29 1010.7
20260906213429 98 156 3.0 11.0 0.00 0.00 0.00 29 1010.6
20260906212926 97 228 5.0 13.0 0.00 0.00 0.00 29 1010.7
20260906212421 97 171 10.0 15.0 0.00 0.00 0.00 29 1010.7
20260906211916 99 90 0.0 5.0 0.00 0.00 0.00 27 1011.0
20260906211410 98 166 3.0 9.0 0.00 0.00 0.00 30 1010.8
20260906210905 97 144 5.0 9.0 0.00 0.00 0.00 30 1010.9
20260906210401 98 159 3.0 11.0 0.00 0.00 0.00 28 1011.1
20260906205855 98 161 6.0 15.0 0.00 0.00 0.00 29 1011.2
20260906205352 98 148 4.0 10.0 0.00 0.00 0.00 30 1011.0
20260906204847 98 231 3.0 8.0 0.00 0.00 0.00 31 1011.3
20260906204346 96 203 3.0 12.0 0.00 0.00 0.00 33 1011.4
20260906203845 97 166 8.0 11.0 0.00 0.00 0.00 32 1011.2
20260906203341 97 168 4.0 16.0 0.00 0.00 0.00 32 1011.4
20260906202838 98 194 1.0 6.0 0.00 0.00 0.00 33 1011.4
20260906202332 96 95 4.0 6.0 0.00 0.00 0.00 33 1011.5
20260906201832 96 74 1.0 9.0 0.00 0.00 0.00 33 1011.6
20260906201327 97 187 3.0 12.0 0.00 0.00 0.00 33 1011.9
20260906200822 96 108 3.0 15.0 0.00 0.00 0.00 33 1011.9
20260906200318 98 206 5.0 5.0 0.00 0.00 0.00 32 1011.5
20260906195813 96 183 5.0 12.0 0.00 0.00 0.00 33 1012.0
20260906195309 97 219 7.0 8.0 0.00 0.00 0.00 31 1012.1
20260906194805 98 142 6.0 9.0 0.00 0.00 0.00 30 1012.1
20260906194300 95 194 3.0 9.0 0.00 0.00 0.00 35 1012.0
20260906193755 95 180 0.0 10.0 0.00 0.00 0.00 35 1012.1
20260906193249 94 204 4.0 14.0 0.00 0.00 0.00 37 1012.4
20260906192746 96 176 8.0 13.0 0.00 0.00 0.00 35 1012.6
20260906192246 96 167 4.0 6.0 0.00 0.00 0.00 35 1012.4
20260906191745 95 160 5.0 17.0 0.00 0.00 0.00 37 1012.6
20260906191240 96 166 2.0 14.0 0.00 0.00 0.00 36 1012.9
20260906190734 97 158 3.0 4.0 0.00 0.00 0.00 33 1012.5
20260906190228 96 172 1.0 14.0 0.00 0.00 0.00 34 1012.7
20260906185727 95 83 0.0 8.0 0.00 0.00 0.00 38 1013.1
20260906185227 94 168 5.0 15.0 0.00 0.00 0.00 37 1012.9
20260906184721 95 135 6.0 16.0 0.00 0.00 0.00 37 1012.9
20260906184216 95 139 2.0 9.0 0.00 0.00 0.00 37 1013.1
20260906183712 95 95 4.0 8.0 0.00 0.00 0.00 37 1013.1
20260906183209 93 170 5.0 11.0 0.00 0.00 0.00 38 1013.2
20260906182708 93 157 7.0 14.0 0.00 0.00 0.00 38 1013.4
20260906182204 94 171 7.0 14.0 0.00 0.00 0.00 38 1013.4
20260906181659 94 180 4.0 12.0 0.00 0.00 0.00 38 1013.5
20260906181155 93 171 6.0 11.0 0.00 0.00 0.00 39 1013.6
20260906180650 95 165 5.0 11.0 0.00 0.00 0.00 38 1013.6
20260906180145 95 109 2.0 9.0 0.00 0.00 0.00 38 1013.6
20260906175643 92 182 8.0 12.0 0.00 0.00 0.00 40 1013.6
20260906175138 94 153 7.0 12.0 0.00 0.00 0.00 39 1013.5
20260906174636 94 180 3.0 7.0 0.00 0.00 0.00 40 1013.7
20260906174131 92 201 7.0 12.0 0.00 0.00 0.00 41 1013.7
20260906173627 92 166 7.0 10.0 0.00 0.00 0.00 42 1014.2
20260906173122 91 184 6.0 16.0 0.00 0.00 0.00 43 1014.1
20260906172621 91 194 5.0 12.0 0.00 0.00 0.00 43 1013.7
20260906172117 91 180 11.0 13.0 0.00 0.00 0.00 43 1014.2
20260906171616 91 180 6.0 15.0 0.00 0.00 0.00 44 1014.2
20260906171112 91 158 6.0 13.0 0.00 0.00 0.00 46 1014.2
20260906170608 90 167 5.0 13.0 0.00 0.00 0.00 46 1014.2
20260906165558 89 184 6.0 11.0 0.00 0.00 0.00 47 1014.2
20260906165053 89 183 5.0 11.0 0.00 0.00 0.00 47 1014.4
20260906164552 90 172 10.0 10.0 0.00 0.00 0.00 47 1014.4
20260906164048 89 170 2.0 6.0 0.00 0.00 0.00 49 1014.3
20260906163543 88 180 1.0 5.0 0.00 0.00 0.00 50 1014.7
20260906163039 88 191 3.0 6.0 0.00 0.00 0.00 49 1014.4
20260906162536 88 143 2.0 9.0 0.00 0.00 0.00 50 1014.6
20260906162031 89 154 3.0 9.0 0.00 0.00 0.00 51 1014.5
20260906161526 86 153 4.0 9.0 0.00 0.00 0.00 53 1014.2
20260906161025 87 169 4.0 5.0 0.00 0.00 0.00 53 1014.6
20260906160524 86 177 5.0 7.0 0.00 0.00 0.00 52 1014.5
20260906160023 85 198 0.0 5.0 0.00 0.00 0.00 55 1014.6
20260906155520 86 171 2.0 5.0 0.00 0.00 0.00 55 1014.3
20260906155017 85 192 1.0 5.0 0.00 0.00 0.00 54 1014.4
20260906154512 85 168 2.0 3.0 0.00 0.00 0.00 55 1014.4
20260906154011 84 160 6.0 8.0 0.00 0.00 0.00 57 1014.5
20260906153509 84 169 5.0 9.0 0.00 0.00 0.00 57 1014.5
20260906153005 84 187 6.0 6.0 0.00 0.00 0.00 57 1014.2
20260906152459 83 171 4.0 6.0 0.00 0.00 0.00 57 1014.5
20260906151958 83 125 2.0 5.0 0.00 0.00 0.00 59 1014.4
20260906151454 82 155 5.0 5.0 0.00 0.00 0.00 59 1014.6
20260906150950 82 177 5.0 7.0 0.00 0.00 0.00 59 1014.4
20260906150444 82 183 5.0 7.0 0.00 0.00 0.00 60 1014.6
20260906145943 82 123 2.0 4.0 0.00 0.00 0.00 60 1014.4
20260906145438 82 203 1.0 4.0 0.00 0.00 0.00 61 1014.5
20260906144932 82 180 5.0 7.0 0.00 0.00 0.00 61 1014.2
20260906144427 81 162 4.0 9.0 0.00 0.00 0.00 62 1014.2
20260906143923 81 182 4.0 8.0 0.00 0.00 0.00 62 1014.2
20260906143418 81 90 2.0 7.0 0.00 0.00 0.00 61 1014.3
20260906142914 81 182 4.0 5.0 0.00 0.00 0.00 61 1014.3
20260906142413 81 174 4.0 6.0 0.00 0.00 0.00 61 1014.1
20260906141908 81 180 4.0 8.0 0.00 0.00 0.00 62 1013.9
20260906141408 80 172 6.0 8.0 0.00 0.00 0.00 63 1014.2
20260906140902 80 195 5.0 7.0 0.00 0.00 0.00 62 1014.2
20260906140357 80 143 3.0 5.0 0.00 0.00 0.00 63 1013.9
20260906135854 80 170 3.0 5.0 0.00 0.00 0.00 64 1013.9
20260906135349 79 168 4.0 6.0 0.00 0.00 0.00 64 1013.7
20260906134844 80 169 0.0 3.0 0.00 0.00 0.00 63 1014.1
20260906134339 80 90 0.0 3.0 0.00 0.00 0.00 65 1013.6
20260906133835 79 127 2.0 3.0 0.00 0.00 0.00 65 1013.7
20260906133330 79 84 2.0 4.0 0.00 0.00 0.00 66 1013.7
20260906132826 78 172 0.0 3.0 0.00 0.00 0.00 66 1013.8
20260906132321 78 180 0.0 2.0 0.00 0.00 0.00 67 1013.4
20260906131816 77 145 1.0 2.0 0.00 0.00 0.00 68 1013.5
20260906131312 77 77 0.0 0.0 0.00 0.00 0.00 69 1013.3
20260906130808 76 90 0.0 1.0 0.00 0.00 0.00 69 1013.4
20260906130307 75 98 0.0 1.0 0.00 0.00 0.00 70 1013.6
20260906125805 75 96 0.0 2.0 0.00 0.00 0.00 69 1013.3
20260906125306 75 109 2.0 3.0 0.00 0.00 0.00 68 1013.3
20260906124758 74 74 0.0 2.0 0.00 0.00 0.00 67 1013.3
20260906124254 74 74 0.0 1.0 0.00 0.00 0.00 67 1013.5
20260906123753 75 71 0.0 0.0 0.00 0.00 0.00 66 1013.2
20260906123248 75 71 0.0 0.0 0.00 0.00 0.00 65 1013.3
20260906122748 75 74 0.0 1.0 0.00 0.00 0.00 65 1013.2
20260906122243 75 0 1.0 1.0 0.00 0.00 0.00 66 1013.3
20260906121740 76 106 0.0 0.0 0.00 0.00 0.00 66 1013.1
20260906121236 76 81 0.0 0.0 0.00 0.00 0.00 66 1013.3
20260906120731 76 0 1.0 3.0 0.00 0.00 0.00 65 1013.2
20260906120228 78 60 0.0 2.0 0.00 0.00 0.00 64 1013.2
20260906115723 78 174 0.0 2.0 0.00 0.00 0.00 64 1013.1
20260906115218 79 190 0.0 3.0 0.00 0.00 0.00 64 1012.7
20260906114717 78 175 2.0 2.0 0.00 0.00 0.00 63 1012.7
20260906114212 78 165 0.0 0.0 0.00 0.00 0.00 63 1012.9
20260906113708 79 165 0.0 1.0 0.00 0.00 0.00 62 1012.5
20260906113207 79 198 2.0 2.0 0.00 0.00 0.00 62 1012.5
20260906112707 79 229 2.0 2.0 0.00 0.00 0.00 61 1012.6
20260906112204 79 233 3.0 3.0 0.00 0.00 0.00 61 1012.4
20260906111703 79 345 0.0 1.0 0.00 0.00 0.00 61 1012.4
20260906111158 79 330 0.0 2.0 0.00 0.00 0.00 61 1012.4
20260906110653 78 249 1.0 2.0 0.00 0.00 0.00 62 1012.6
20260906110148 78 331 0.0 0.0 0.00 0.00 0.00 61 1012.4
20260906105642 78 331 0.0 2.0 0.00 0.00 0.00 61 1012.3
20260906105138 79 180 0.0 2.0 0.00 0.00 0.00 61 1012.3
20260906104638 78 83 0.0 1.0 0.00 0.00 0.00 61 1012.3
20260906104137 78 174 0.0 2.0 0.00 0.00 0.00 62 1012.2
20260906103635 78 180 0.0 0.0 0.00 0.00 0.00 62 1012.3
20260906103130 78 0 0.0 0.0 0.00 0.00 0.00 62 1012.1
20260906102626 78 345 0.0 0.0 0.00 0.00 0.00 62 1012.1
20260906102120 78 195 0.0 0.0 0.00 0.00 0.00 62 1012.2
20260906101615 78 0 0.0 0.0 0.00 0.00 0.00 61 1012.3
20260906101114 79 352 0.0 1.0 0.00 0.00 0.00 61 1012.2
20260906100610 79 90 0.0 2.0 0.00 0.00 0.00 59 1011.9
20260906100105 80 172 0.0 2.0 0.00 0.00 0.00 59 1012.3
20260906095604 80 180 0.0 2.0 0.00 0.00 0.00 58 1012.0
20260906095100 80 161 0.0 2.0 0.00 0.00 0.00 59 1012.2
20260906094559 80 190 0.0 3.0 0.00 0.00 0.00 59 1012.2
20260906094055 80 180 0.0 1.0 0.00 0.00 0.00 59 1012.3
20260906093550 80 180 0.0 2.0 0.00 0.00 0.00 59 1012.2
20260906093045 78 212 2.0 2.0 0.00 0.00 0.00 61 1012.3
20260906092540 78 337 0.0 0.0 0.00 0.00 0.00 62 1012.2
20260906092036 79 0 0.0 2.0 0.00 0.00 0.00 61 1012.2
20260906091531 80 66 0.0 1.0 0.00 0.00 0.00 58 1012.3
20260906091027 80 233 0.0 2.0 0.00 0.00 0.00 58 1012.1
20260906090522 80 257 0.0 2.0 0.00 0.00 0.00 58 1012.4
20260906090017 79 255 2.0 2.0 0.00 0.00 0.00 61 1012.3
20260906085516 78 188 0.0 1.0 0.00 0.00 0.00 63 1012.2
20260906085015 78 63 0.0 4.0 0.00 0.00 0.00 64 1012.3
20260906084510 78 52 3.0 5.0 0.00 0.00 0.00 65 1012.3
20260906084009 79 113 3.0 3.0 0.00 0.00 0.00 64 1012.2
20260906083505 78 194 0.0 0.0 0.00 0.00 0.00 63 1011.8
20260906083004 78 194 0.0 1.0 0.00 0.00 0.00 63 1012.0
20260906082459 78 0 0.0 3.0 0.00 0.00 0.00 65 1011.8
20260906081955 79 180 0.0 1.0 0.00 0.00 0.00 63 1012.0
20260906081450 79 210 2.0 2.0 0.00 0.00 0.00 62 1012.0
20260906080946 79 254 0.0 2.0 0.00 0.00 0.00 61 1012.0
20260906080442 80 203 0.0 2.0 0.00 0.00 0.00 59 1012.1
20260906075937 80 198 0.0 2.0 0.00 0.00 0.00 57 1012.2
20260906075431 81 254 0.0 2.0 0.00 0.00 0.00 55 1012.4
20260906074927 81 180 0.0 0.0 0.00 0.00 0.00 54 1012.6
20260906074421 81 203 0.0 2.0 0.00 0.00 0.00 52 1012.6
20260906073920 81 240 3.0 3.0 0.00 0.00 0.00 52 1012.4
20260906073415 82 352 0.0 0.0 0.00 0.00 0.00 52 1012.7
20260906072911 82 165 0.0 1.0 0.00 0.00 0.00 52 1012.7
20260906072406 82 270 0.0 2.0 0.00 0.00 0.00 52 1012.6
20260906071902 82 250 0.0 2.0 0.00 0.00 0.00 52 1012.5
20260906071357 82 239 2.0 3.0 0.00 0.00 0.00 52 1012.4
20260906070853 82 246 0.0 1.0 0.00 0.00 0.00 51 1012.6
20260906070349 81 160 0.0 2.0 0.00 0.00 0.00 52 1013.0
20260906065844 81 234 1.0 3.0 0.00 0.00 0.00 52 1013.0
20260906065339 81 229 0.0 2.0 0.00 0.00 0.00 52 1013.1
20260906064834 81 165 0.0 3.0 0.00 0.00 0.00 51 1013.0
20260906064330 81 200 1.0 3.0 0.00 0.00 0.00 51 1013.2
20260906063825 80 162 0.0 2.0 0.00 0.00 0.00 51 1013.4
20260906063320 80 196 0.0 2.0 0.00 0.00 0.00 51 1013.3
20260906062815 79 157 2.0 3.0 0.00 0.00 0.00 53 1013.3
20260906062315 78 225 3.0 3.0 0.00 0.00 0.00 55 1013.2
20260906061810 78 169 2.0 2.0 0.00 0.00 0.00 57 1013.3
20260906061307 78 151 1.0 3.0 0.00 0.00 0.00 57 1013.3
20260906060801 78 225 4.0 4.0 0.00 0.00 0.00 55 1013.2
20260906060259 78 195 0.0 3.0 0.00 0.00 0.00 55 1013.0
20260906055754 78 157 1.0 4.0 0.00 0.00 0.00 53 1013.1
20260906055249 78 180 2.0 4.0 0.00 0.00 0.00 52 1012.9
20260906054745 79 175 3.0 4.0 0.00 0.00 0.00 50 1012.5
20260906054240 80 15 0.0 1.0 0.00 0.00 0.00 50 1012.9
20260906053737 80 29 0.0 2.0 0.00 0.00 0.00 50 1013.0
20260906053232 80 0 0.0 3.0 0.00 0.00 0.00 50 1012.9
20260906052727 79 346 1.0 2.0 0.00 0.00 0.00 50 1012.6
20260906052223 79 10 2.0 2.0 0.00 0.00 0.00 50 1012.9
20260906051720 78 15 3.0 3.0 0.00 0.00 0.00 50 1012.7
20260906051219 79 6 3.0 3.0 0.00 0.00 0.00 50 1013.0
20260906050714 79 7 3.0 3.0 0.00 0.00 0.00 50 1012.9
20260906050210 80 3 3.0 4.0 0.00 0.00 0.00 49 1013.0
20260906045708 80 340 1.0 4.0 0.00 0.00 0.00 49 1013.1
20260906045203 79 343 3.0 5.0 0.00 0.00 0.00 50 1013.1
20260906044659 80 337 0.0 1.0 0.00 0.00 0.00 49 1013.1
20260906044154 79 342 0.0 0.0 0.00 0.00 0.00 50 1013.1
20260906043650 79 342 0.0 0.0 0.00 0.00 0.00 49 1013.0
20260906043145 80 342 1.0 2.0 0.00 0.00 0.00 48 1012.7
20260906042645 80 14 0.0 0.0 0.00 0.00 0.00 48 1013.1
20260906042139 81 10 3.0 3.0 0.00 0.00 0.00 48 1013.1
20260906041635 81 345 0.0 0.0 0.00 0.00 0.00 48 1012.9
20260906041130 82 0 0.0 1.0 0.00 0.00 0.00 47 1013.0
20260906040626 82 352 0.0 0.0 0.00 0.00 0.00 47 1013.1
20260906040121 82 331 1.0 1.0 0.00 0.00 0.00 48 1012.9
20260906035616 82 240 0.0 0.0 0.00 0.00 0.00 47 1012.9
20260906035112 82 240 0.0 0.0 0.00 0.00 0.00 47 1012.7
20260906034612 82 240 0.0 2.0 0.00 0.00 0.00 47 1012.6
20260906034107 83 200 0.0 2.0 0.00 0.00 0.00 46 1012.5
20260906033603 83 232 0.0 2.0 0.00 0.00 0.00 46 1012.7
20260906033057 83 246 0.0 0.0 0.00 0.00 0.00 46 1012.7
20260906032554 84 154 0.0 0.0 0.00 0.00 0.00 46 1012.6
20260906032053 84 154 0.0 0.0 0.00 0.00 0.00 47 1012.4
20260906031549 83 154 0.0 0.0 0.00 0.00 0.00 47 1012.4
20260906031045 84 154 0.0 0.0 0.00 0.00 0.00 46 1012.3
20260906030543 83 106 0.0 0.0 0.00 0.00 0.00 47 1012.3
20260906030043 83 81 0.0 0.0 0.00 0.00 0.00 47 1012.2
20260906025538 83 81 0.0 0.0 0.00 0.00 0.00 47 1011.9
20260906025036 83 29 1.0 2.0 0.00 0.00 0.00 47 1011.6
20260906024531 83 90 0.0 2.0 0.00 0.00 0.00 47 1011.9
20260906024025 83 8 0.0 1.0 0.00 0.00 0.00 47 1011.5
20260906023522 83 45 2.0 3.0 0.00 0.00 0.00 47 1011.2
20260906023016 84 58 3.0 3.0 0.00 0.00 0.00 47 1010.9
20260906022511 84 32 0.0 2.0 0.00 0.00 0.00 46 1011.0
20260906022007 84 12 1.0 2.0 0.00 0.00 0.00 46 1011.0
20260906021502 84 23 2.0 3.0 0.00 0.00 0.00 46 1010.9
20260906020956 84 53 2.0 3.0 0.00 0.00 0.00 46 1011.0
20260906020445 85 54 1.0 2.0 0.00 0.00 0.00 45 1011.0
20260906015944 85 63 0.0 1.0 0.00 0.00 0.00 45 1010.8
20260906015444 85 74 0.0 0.0 0.00 0.00 0.00 44 1010.9
20260906014944 86 82 0.0 2.0 0.00 0.00 0.00 44 1010.7
20260906014438 87 23 0.0 1.0 0.00 0.00 0.00 44 1010.4
20260906013934 87 342 2.0 4.0 0.00 0.00 0.00 43 1010.3
20260906013430 87 12 2.0 5.0 0.00 0.00 0.00 43 1010.7
20260906012926 87 3 5.0 5.0 0.00 0.00 0.00 43 1010.2
20260906012425 88 3 2.0 5.0 0.00 0.00 0.00 42 1010.6
20260906011924 88 15 3.0 3.0 0.00 0.00 0.00 42 1010.4
20260906011420 88 337 0.0 3.0 0.00 0.00 0.00 41 1010.4
20260906010916 89 0 0.0 2.0 0.00 0.00 0.00 40 1010.3
20260906010411 89 337 0.0 2.0 0.00 0.00 0.00 40 1010.2
20260906005907 89 8 1.0 5.0 0.00 0.00 0.00 40 1010.2
20260906005406 90 262 0.0 3.0 0.00 0.00 0.00 40 1010.2
20260906004904 89 338 2.0 3.0 0.00 0.00 0.00 40 1010.2
20260906004359 90 270 0.0 3.0 0.00 0.00 0.00 40 1010.2
20260906003855 90 350 2.0 4.0 0.00 0.00 0.00 40 1010.3
20260906003350 91 279 2.0 4.0 0.00 0.00 0.00 39 1010.2
20260906002846 92 342 0.0 3.0 0.00 0.00 0.00 38 1010.1
20260906002344 93 328 0.0 4.0 0.00 0.00 0.00 35 1010.1
20260906001840 92 298 3.0 4.0 0.00 0.00 0.00 35 1010.4
20260906001336 93 81 1.0 3.0 0.00 0.00 0.00 35 1010.1
20260906000831 93 35 0.0 3.0 0.00 0.00 0.00 35 1010.3
20260906000326 93 8 2.0 5.0 0.00 0.00 0.00 35 1010.3
20260905235825 93 307 4.0 8.0 0.00 0.00 0.00 35 1009.9
20260905235320 94 343 7.0 7.0 0.00 0.00 0.00 34 1010.1
20260905234815 94 355 0.0 3.0 0.00 0.00 0.00 34 1010.1
20260905234311 94 148 0.0 2.0 0.00 0.00 0.00 34 1009.9
20260905233805 95 342 2.0 4.0 0.00 0.00 0.00 33 1009.8
20260905233300 95 293 3.0 7.0 0.00 0.00 0.00 33 1009.9
20260905232759 95 220 2.0 5.0 0.00 0.00 0.00 32 1009.9
20260905232255 95 75 1.0 2.0 0.00 0.00 0.00 32 1009.9
20260905231751 96 0 0.0 2.0 0.00 0.00 0.00 32 1009.2
20260905231246 96 63 2.0 5.0 0.00 0.00 0.00 31 1009.6
20260905230742 96 312 0.0 6.0 0.00 0.00 0.00 31 1009.6
20260905230239 97 324 3.0 5.0 0.00 0.00 0.00 30 1009.7
20260905225734 97 334 0.0 6.0 0.00 0.00 0.00 30 1009.8